STARLINK-33809, 63508

Orbit data source: Space-Track

STARLINK-33809, 63508 is a payload satellite owned by SpaceX/Seattle (US) in LEO that was launched on Mon, 07 Apr 2025 UTC via an FALCON 9 launch vehicle from the Air Force Western Test Range (AFWTR). Payload-class satellites include a variety of spacecraft equipped with specific instruments for various scientific and technological missions. These include communications satellites like Starlink; space stations such as the ISS; scientific satellites like the Hubble; Earth observation satellites from companies like Planet Labs, Umbra, and HawkEye 360; GPS; miniature CubeSats for education and research; and military/defense satellites.

Loading next visibility...
Identifier
63508, 2025-071R
Orbit
LEO
Country
Flag of USUS
Related business
Manufacturer
SpaceX/Seattle
Mission
Operational Commercial Communications
Bus & Motor
STARLINK V2MO, Unknown motor
Mass
575 kg wet, ~530 kg dry
Launch date (UTC)
2025-04-07 (5 months ago)
Launch vehicle
FALCON 9
Launch site
Air Force Western Test Range (AFWTR)
Object type
Payload
Rocket body
Debris
Shape & HBR
Box + 1 Pan, 14.5 m
Radar Cross Section
41.120 m², Large (>1 m²)

Expand to show TLE details & history
Last TLE update: 23 hours ago

TLE from 23 hours ago
0 STARLINK-33809
1 63508U 25071R   25261.27199457  .00036551  00000-0  12389-2 0  9992
2 63508  53.1547 220.6305 0002924  70.9413 289.1905 15.30229677 26316
Epoch: 2025-09-18T06:31Z
TLE epoch observation values (Epoch: 2025-09-18T06:31:40.33Z)
Latitude
0.00002°
Longitude
125.2765°
Altitude
475.367 km
Speed
7.63 km/s
True Right ascension
14h 42m 31s
True Declination
0° 00' 00"
Sunlit
Object was in daylight at epoch
Visualization orbit readout
Latitude
Unknown
Longitude
Unknown
Altitude
Unknown
Speed
Unknown
Apparent Right ascension
Unknown
Apparent Declination
Unknown
Sunlit
N/A
Visualization observer readout
Local Sidereal Time
22:47:59
Azimuth
Unknown
Elevation
Unknown
Doppler factor
Unknown
Orbital elements
Apogee altitude
477.388 km
Perigee altitude
473.38 km
Semi-major axis
6,853.521 km
Eccentricity
0.00029
Inclination
53.1547°
RAAN
220.6305°
Arg. of periapsis
70.9413°
True anomaly
289.15885°
Mean anomaly
289.1905°
Eccentric anomaly
289.17468°
Mean motion
3.82536 °/min
Orbital period
94.11 mins
BSTAR
0.0012389
Loading maneuver chart data...
Computing Atmospheric mass density...
Loading historical data...
Loading historical data...
Loading historical data...
Loading historical data...
Loading historical data...
Loading historical data...
Loading historical data...

Documentation

Showing up to 5 results
|